Regional Weather Roundup
Issued by NWS Burlington, VT

Current Version | Previous Version | Text Only | Print | Product List | Glossary On
Versions: 1 2 3 4 5 6 7 8 9 10 11 12 13 14 15 16 17 18 19 20 21 22 23 24 25 26 27 28 29 30 31 32 33 34 35 36 37 38 39 40 41 42 43 44 45 46 47 48 49 50
000
ASUS41 KBTV 270130
RWRBTV
VERMONT REGIONAL WEATHER ROUNDUP
NATIONAL WEATHER SERVICE BURLINGTON VT
900 PM EDT TUE MAY 26 2015

NOTE: "FAIR" INDICATES FEW OR NO CLOUDS BELOW 12,000 FEET WITH NO
SIGNIFICANT WEATHER AND/OR OBSTRUCTIONS TO VISIBILITY.

* THESE REPORTS ARE NOT UNDER NWS QUALITY CONTROL AND/OR DO NOT
  REPORT WEATHER SUCH AS PRECIPITATION AND FOG.

VTZ001>019-270200-
_____VERMONT_____


CITY           SKY/WX    TMP DP  RH WIND       PRES   REMARKS
BURLINGTON     MOCLDY    74  58  57 SE3       30.00S
MORRISVILLE    MOCLDY    72  60  66 S5        30.05R
ST. JOHNSBURY*   N/A     73  63  70 MISG      30.02S
LYNDONVILLE*     N/A     74  54  49 SW5       30.08S
MIDDLEBURY*      N/A     78  62  57 S8        30.05R
RUTLAND*       CLOUDY    75  59  57 SE5       30.08S
SPRINGFIELD    MOCLDY    72  62  71 CALM      30.08S
HIGHGATE*        N/A     73  58  58 S3        30.00R
NEWPORT*         N/A     70  57  64 S5        30.05R
BENNINGTON     MOCLDY    76  64  66 SW5       30.10S
SUTTON*          N/A     68 N/A N/A MISG        N/A
MT. MANSFIELD*   N/A     64 N/A N/A CALM        N/A

_____LAKE CHAMPLAIN_____


CITY           SKY/WX    TMP DP  RH WIND       PRES   REMARKS
BURTON ISLAND*   N/A     75  55  50 S5          N/A
COLCHESTER RF*   N/A     73  55  53 S7          N/A
DIAMOND ISL*     N/A     75  59  57 W2          N/A

$$

NYZ007-026>031-035-052-083-270200-
_____NORTHERN NEW YORK_____


CITY           SKY/WX    TMP DP  RH WIND       PRES   REMARKS
PLATTSBURGH    MOCLDY    76  58  53 CALM      29.99S
MASSENA        PTCLDY    73  62  68 SW7       30.00R
OGDENSBURG*    CLEAR     70  64  83 SW3       30.00R
POTSDAM*       CLEAR     73  66  78 SW3       30.01S
WATERTOWN      MOCLDY    72  66  81 CALM      30.00F
FT DRUM        MOCLDY    76  67  74 SE5       30.02S
ALBANY         MOCLDY    79  66  64 SE5       30.07S
GLENS FALLS    MOCLDY    77  62  59 SW5       30.05S

$$
NHZ002-005-011-270200-
_____NEW HAMPSHIRE_____


CITY           SKY/WX    TMP DP  RH WIND       PRES   REMARKS
LEBANON        PTCLDY    76  61  59 S7        30.06R
KEENE          MOCLDY   N/A N/A N/A S10       30.11R
MT WASHINGTON  MOCLDY    54  50  87 W22         N/A
PLYMOUTH         N/A     71  65  80 CALM      30.06R
WHITEFIELD     PTCLDY    69  61  75 CALM      30.06S

$$

_____REGIONAL QUEBEC LOCATIONS_____


CITY           SKY/WX    TMP DP  RH WIND       PRES   REMARKS
MONTREAL       MOCLDY    75  61  60 SW12      29.97S
QUEBEC CITY    PTCLDY    73  64  73 W8        29.92R
SHERBROOKE     CLEAR     68  61  77 S3        30.02R

_____REGIONAL ONTARIO LOCATIONS_____


CITY           SKY/WX    TMP DP  RH WIND       PRES   REMARKS
OTTAWA         CLOUDY    75  63  64 S7        29.97S

______KEY______
VSB  - VISIBILITY IN MILES
WCI  - WIND CHILL INDEX
HX   - HEAT INDEX
$$
NNNN


USA.gov is the U.S. government's official web portal to all federal, state and local government web resources and services.